Location: La Estación
(39.9833°N, 3.9500°W)
Time: 16:13:03
(UTC+00:00)

SPOT 3 Rocket - Pass Details

Date: 14 June 2025
Orbit: 776 x 789 km, 98.5° (Epoch: 20 July)

Event Time Altitude Azimuth Distance (km) Brightness Sun altitude
Exits shadow 21:14:36 20° 132° (SE) 1,718 4.7 -13.9°
Maximum altitude 21:17:44 43° 70° (ENE) 1,078 4.1 -14.3°
Drops below altitude 10° 21:22:35 10° 0° (N) 2,341 6.7 -14.9°
Sets 21:25:00 0° 354° (N) 3,275 7.7 -15.2°
